User: anonymous   Login
Location: Unspecified
(0.0000°N, 0.0000°E)
Time: 13:41:11
(UTC+00:00)
Language:

Topex - Orbit

View from above orbital plane
View from above orbital plane
View from above satellite
View from above satellite

Ground track
Ground track

The orbit data is extracted from the following two-line orbital elements,

1 22076U 92052A   21340.90917351 -.00000057  00000-0  17289-4 0  9994
2 22076  66.0408 326.9413 0008195 270.3693 101.7485 12.81034595371717
Epoch (UTC): 06 December 2021 21:49:12
Eccentricity: 0.0008195
inclination: 66.0408°
perigee height: 1331 km
apogee height: 1343 km
right ascension of ascending node: 326.9413°
argument of perigee: 270.3693°
revolutions per day: 12.81034595
mean anomaly at epoch: 101.7485°
orbit number at epoch: 37171

The dashed part of the orbit path shows where the satellite is in the earth's shadow,  

DLR